Retour au catalogue

STARLINK-35915

ActifCommunicationsVLEO
NORAD 66521·PAYLOAD·🇺🇸 United States

Lancé Nov 19, 2025 depuis Cape Canaveral Space Force Station

Loading…

Prochains Passages (prochaines 24 heures)

TLE

FraisSource: CelesTrak SupGP

Époque: Sep 14, 2026, 14:41 UTC

1 66521C 25265F   26257.61229167  .00043035  00000+0  15589-2 0  2577
2 66521  43.0001 291.0650 0001222 278.7585 166.1258 15.27553442    10

Suivez STARLINK-35915 en temps réel avec AllMySat

Download on the App Store